| time (UTC) | temp F | wind direction | speed knots | gust knots | rain 1hr in | rain 24hr in | rain mn in | humidity % | barometer mb |
| 20260906223338 | 91 | 144 | 5.2 | 7.8 | 0.00 | 0.00 | 0.00 | 28 | 1017.3 |
| 20260906222809 | 92 | 133 | 3.5 | 9.6 | 0.00 | 0.00 | 0.00 | 28 | 1017.3 |
| 20260906222300 | 92 | 129 | 7.0 | 12.2 | 0.00 | 0.00 | 0.00 | 28 | 1017.3 |
| 20260906221627 | 93 | 168 | 5.2 | 9.6 | 0.00 | 0.00 | 0.00 | 28 | 1017.7 |
| 20260906221038 | 93 | 120 | 2.6 | 13.0 | 0.00 | 0.00 | 0.00 | 27 | 1017.3 |
| 20260906220418 | 94 | 110 | 10.4 | 13.0 | 0.00 | 0.00 | 0.00 | 28 | 1017.7 |
| 20260906215818 | 93 | 122 | 3.5 | 12.2 | 0.00 | 0.00 | 0.00 | 28 | 1017.3 |
| 20260906215308 | 93 | 100 | 8.7 | 12.2 | 0.00 | 0.00 | 0.00 | 28 | 1018.0 |
| 20260906214624 | 94 | 119 | 7.0 | 8.7 | 0.00 | 0.00 | 0.00 | 28 | 1018.0 |
| 20260906214011 | 92 | 104 | 5.2 | 9.6 | 0.00 | 0.00 | 0.00 | 28 | 1018.0 |
| 20260906213331 | 93 | 122 | 7.0 | 15.6 | 0.00 | 0.00 | 0.00 | 28 | 1017.7 |
| 20260906212714 | 93 | 126 | 10.4 | 15.6 | 0.00 | 0.00 | 0.00 | 29 | 1017.7 |
| 20260906212120 | 93 | 92 | 7.8 | 11.3 | 0.00 | 0.00 | 0.00 | 28 | 1018.0 |
| 20260906211705 | 94 | 108 | 4.3 | 11.3 | 0.00 | 0.00 | 0.00 | 29 | 1017.7 |
| 20260906211037 | 93 | 69 | 3.5 | 9.6 | 0.00 | 0.00 | 0.00 | 30 | 1018.0 |
| 20260906210404 | 93 | 146 | 6.1 | 7.0 | 0.00 | 0.00 | 0.00 | 30 | 1018.0 |
| 20260906205527 | 92 | 123 | 5.2 | 9.6 | 0.00 | 0.00 | 0.00 | 30 | 1018.0 |
| 20260906204706 | 91 | 115 | 0.0 | 8.7 | 0.00 | 0.00 | 0.00 | 32 | 1018.0 |
| 20260906204042 | 92 | 75 | 5.2 | 9.6 | 0.00 | 0.00 | 0.00 | 33 | 1018.3 |
| 20260906203439 | 92 | 79 | 4.3 | 7.0 | 0.00 | 0.00 | 0.00 | 31 | 1018.3 |
| 20260906202813 | 94 | 120 | 4.3 | 7.0 | 0.00 | 0.00 | 0.00 | 31 | 1018.3 |
| 20260906202201 | 93 | 122 | 3.5 | 8.7 | 0.00 | 0.00 | 0.00 | 33 | 1018.3 |
| 20260906201540 | 91 | 101 | 4.3 | 11.3 | 0.00 | 0.00 | 0.00 | 33 | 1018.3 |
| 20260906200916 | 91 | 116 | 7.0 | 7.8 | 0.00 | 0.00 | 0.00 | 33 | 1018.3 |
| 20260906200306 | 93 | 107 | 5.2 | 14.8 | 0.00 | 0.00 | 0.00 | 32 | 1018.7 |
| 20260906195638 | 91 | 128 | 6.1 | 8.7 | 0.00 | 0.00 | 0.00 | 33 | 1018.3 |
| 20260906195044 | 91 | 113 | 5.2 | 7.8 | 0.00 | 0.00 | 0.00 | 34 | 1018.7 |
| 20260906194418 | 93 | 158 | 5.2 | 7.8 | 0.00 | 0.00 | 0.00 | 33 | 1018.7 |
| 20260906193811 | 93 | 115 | 6.1 | 11.3 | 0.00 | 0.00 | 0.00 | 33 | 1018.7 |
| 20260906193320 | 93 | 135 | 4.3 | 7.8 | 0.00 | 0.00 | 0.00 | 33 | 1019.0 |
| 20260906193206 | 92 | 192 | 9.6 | 11.3 | 0.00 | 0.00 | 0.00 | 33 | 1018.7 |
| 20260906192000 | 92 | 119 | 5.2 | 9.6 | 0.00 | 0.00 | 0.00 | 34 | 1019.0 |
| 20260906191440 | 93 | 69 | 3.5 | 8.7 | 0.00 | 0.00 | 0.00 | 34 | 1019.0 |
| 20260906190719 | 92 | 130 | 6.1 | 8.7 | 0.00 | 0.00 | 0.00 | 33 | 1019.0 |
| 20260906190340 | 91 | 108 | 2.6 | 8.7 | 0.00 | 0.00 | 0.00 | 35 | 1019.0 |
| 20260906185500 | 92 | 118 | 0.0 | 7.8 | 0.00 | 0.00 | 0.00 | 34 | 1019.0 |
| 20260906185044 | 91 | 128 | 6.1 | 11.3 | 0.00 | 0.00 | 0.00 | 36 | 1019.4 |
| 20260906184517 | 92 | 111 | 8.7 | 13.0 | 0.00 | 0.00 | 0.00 | 35 | 1019.4 |
| 20260906184037 | 91 | 184 | 6.1 | 9.6 | 0.00 | 0.00 | 0.00 | 37 | 1019.4 |
| 20260906183019 | 91 | 131 | 3.5 | 8.7 | 0.00 | 0.00 | 0.00 | 37 | 1019.4 |
| 20260906182324 | 92 | 123 | 7.0 | 8.7 | 0.00 | 0.00 | 0.00 | 36 | 1020.0 |
| 20260906181701 | 91 | 122 | 5.2 | 7.8 | 0.00 | 0.00 | 0.00 | 37 | 1019.4 |
| 20260906181014 | 91 | 121 | 5.2 | 7.8 | 0.00 | 0.00 | 0.00 | 37 | 1019.7 |
| 20260906180400 | 90 | 163 | 4.3 | 9.6 | 0.00 | 0.00 | 0.00 | 37 | 1019.7 |
| 20260906175747 | 90 | 116 | 8.7 | 9.6 | 0.00 | 0.00 | 0.00 | 37 | 1020.0 |
| 20260906175201 | 90 | 138 | 7.0 | 8.7 | 0.00 | 0.00 | 0.00 | 38 | 1020.0 |
| 20260906174543 | 90 | 113 | 0.0 | 8.7 | 0.00 | 0.00 | 0.00 | 37 | 1020.0 |
| 20260906174153 | 88 | 126 | 7.0 | 8.7 | 0.00 | 0.00 | 0.00 | 40 | 1020.4 |
| 20260906173614 | 88 | 156 | 6.1 | 9.6 | 0.00 | 0.00 | 0.00 | 41 | 1020.4 |
| 20260906172719 | 89 | 136 | 6.1 | 9.6 | 0.00 | 0.00 | 0.00 | 40 | 1020.4 |
| 20260906172116 | 89 | 148 | 6.1 | 9.6 | 0.00 | 0.00 | 0.00 | 41 | 1020.7 |
| 20260906171421 | 88 | 117 | 1.7 | 7.8 | 0.00 | 0.00 | 0.00 | 41 | 1020.0 |
| 20260906170731 | 88 | 126 | 1.7 | 3.5 | 0.00 | 0.00 | 0.00 | 43 | 1020.4 |
| 20260906165825 | 87 | 120 | 6.1 | 7.8 | 0.00 | 0.00 | 0.00 | 44 | 1020.7 |
| 20260906165425 | 87 | 116 | 0.9 | 5.2 | 0.00 | 0.00 | 0.00 | 43 | 1020.4 |
| 20260906164846 | 87 | 133 | 2.6 | 6.1 | 0.00 | 0.00 | 0.00 | 45 | 1020.7 |
| 20260906164056 | 86 | 122 | 5.2 | 6.1 | 0.00 | 0.00 | 0.00 | 45 | 1020.4 |
| 20260906163500 | 85 | 111 | 0.9 | 5.2 | 0.00 | 0.00 | 0.00 | 46 | 1020.7 |
| 20260906163146 | 85 | 141 | 1.7 | 7.0 | 0.00 | 0.00 | 0.00 | 46 | 1020.4 |
| 20260906162356 | 85 | 138 | 0.0 | 9.6 | 0.00 | 0.00 | 0.00 | 46 | 1020.0 |
| 20260906161948 | 86 | 146 | 0.0 | 5.2 | 0.00 | 0.00 | 0.00 | 45 | 1020.4 |
| 20260906161248 | 85 | 132 | 0.0 | 6.1 | 0.00 | 0.00 | 0.00 | 47 | 1020.4 |
| 20260906160727 | 85 | 121 | 3.5 | 6.1 | 0.00 | 0.00 | 0.00 | 49 | 1020.7 |
| 20260906155900 | 84 | 144 | 5.2 | 7.0 | 0.00 | 0.00 | 0.00 | 50 | 1020.4 |
| 20260906154929 | 83 | 135 | 4.3 | 7.0 | 0.00 | 0.00 | 0.00 | 49 | 1020.0 |
| 20260906154307 | 82 | 128 | 4.3 | 7.0 | 0.00 | 0.00 | 0.00 | 50 | 1020.4 |
| 20260906154024 | 82 | 122 | 0.0 | 7.8 | 0.00 | 0.00 | 0.00 | 51 | 1020.0 |
| 20260906153121 | 82 | 146 | 0.0 | 8.7 | 0.00 | 0.00 | 0.00 | 52 | 1020.4 |
| 20260906152446 | 82 | 157 | 7.8 | 8.7 | 0.00 | 0.00 | 0.00 | 52 | 1020.0 |
| 20260906151807 | 82 | 165 | 0.0 | 0.0 | 0.00 | 0.00 | 0.00 | 53 | 1020.0 |
| 20260906151217 | 80 | 187 | 0.0 | 2.6 | 0.00 | 0.00 | 0.00 | 55 | 1020.4 |
| 20260906150600 | 79 | 174 | 0.0 | 0.0 | 0.00 | 0.00 | 0.00 | 57 | 1020.4 |
| 20260906145918 | 79 | 142 | 0.0 | 6.1 | 0.00 | 0.00 | 0.00 | 57 | 1020.4 |
| 20260906145414 | 79 | 143 | 0.0 | 5.2 | 0.00 | 0.00 | 0.00 | 58 | 1020.4 |
| 20260906144801 | 79 | 138 | 2.6 | 5.2 | 0.00 | 0.00 | 0.00 | 58 | 1020.0 |
| 20260906144215 | 78 | 206 | 1.7 | 5.2 | 0.00 | 0.00 | 0.00 | 59 | 1020.4 |
| 20260906143553 | 77 | 184 | 1.7 | 5.2 | 0.00 | 0.00 | 0.00 | 60 | 1020.0 |
| 20260906142922 | 77 | 130 | 0.0 | 5.2 | 0.00 | 0.00 | 0.00 | 61 | 1020.0 |
| 20260906142307 | 77 | 151 | 0.9 | 5.2 | 0.00 | 0.00 | 0.00 | 60 | 1020.0 |
| 20260906141710 | 76 | 185 | 2.6 | 2.6 | 0.00 | 0.00 | 0.00 | 60 | 1020.0 |
| 20260906141423 | 76 | 143 | 0.0 | 0.9 | 0.00 | 0.00 | 0.00 | 60 | 1020.0 |
| 20260906140517 | 76 | 129 | 0.0 | 0.0 | 0.00 | 0.00 | 0.00 | 60 | 1020.0 |
| 20260906135902 | 75 | 143 | 0.0 | 0.0 | 0.00 | 0.00 | 0.00 | 60 | 1020.0 |
| 20260906135227 | 74 | 144 | 0.0 | 0.0 | 0.00 | 0.00 | 0.00 | 61 | 1019.7 |
| 20260906134608 | 73 | 145 | 0.0 | 0.0 | 0.00 | 0.00 | 0.00 | 63 | 1019.7 |
| 20260906133951 | 73 | 144 | 0.0 | 1.7 | 0.00 | 0.00 | 0.00 | 63 | 1019.7 |
| 20260906133427 | 73 | 144 | 0.9 | 1.7 | 0.00 | 0.00 | 0.00 | 63 | 1019.7 |
| 20260906132809 | 73 | 145 | 0.0 | 0.0 | 0.00 | 0.00 | 0.00 | 64 | 1019.7 |
| 20260906132144 | 72 | 145 | 0.0 | 0.0 | 0.00 | 0.00 | 0.00 | 65 | 1019.4 |
| 20260906131411 | 72 | 146 | 0.0 | 0.0 | 0.00 | 0.00 | 0.00 | 65 | 1019.4 |
| 20260906130724 | 71 | 145 | 0.0 | 0.0 | 0.00 | 0.00 | 0.00 | 66 | 1019.4 |
| 20260906130116 | 71 | 145 | 0.0 | 0.0 | 0.00 | 0.00 | 0.00 | 67 | 1019.4 |
| 20260906125736 | 70 | 146 | 0.0 | 0.0 | 0.00 | 0.00 | 0.00 | 67 | 1019.7 |
| 20260906124912 | 71 | 147 | 0.0 | 0.0 | 0.00 | 0.00 | 0.00 | 67 | 1019.4 |
| 20260906124303 | 71 | 147 | 0.0 | 0.0 | 0.00 | 0.00 | 0.00 | 66 | 1019.0 |
| 20260906123720 | 71 | 147 | 0.0 | 0.0 | 0.00 | 0.00 | 0.00 | 66 | 1019.4 |
| 20260906123053 | 71 | 147 | 0.0 | 0.0 | 0.00 | 0.00 | 0.00 | 65 | 1019.4 |
| 20260906122421 | 71 | 147 | 0.0 | 0.0 | 0.00 | 0.00 | 0.00 | 65 | 1019.4 |
| 20260906121827 | 71 | 147 | 0.0 | 0.0 | 0.00 | 0.00 | 0.00 | 64 | 1019.4 |
| 20260906121225 | 72 | 148 | 0.0 | 0.9 | 0.00 | 0.00 | 0.00 | 64 | 1019.4 |
| 20260906120554 | 72 | 148 | 0.0 | 0.0 | 0.00 | 0.00 | 0.00 | 63 | 1019.4 |
| 20260906115942 | 72 | 148 | 0.0 | 0.0 | 0.00 | 0.00 | 0.00 | 63 | 1019.4 |
| 20260906115321 | 72 | 148 | 0.0 | 0.0 | 0.00 | 0.00 | 0.00 | 63 | 1019.0 |
| 20260906114711 | 71 | 148 | 0.0 | 0.0 | 0.00 | 0.00 | 0.00 | 64 | 1019.4 |
| 20260906114101 | 71 | 148 | 0.0 | 0.0 | 0.00 | 0.00 | 0.00 | 64 | 1019.4 |
| 20260906113508 | 71 | 148 | 0.0 | 0.0 | 0.00 | 0.00 | 0.00 | 64 | 1019.0 |
| 20260906112837 | 71 | 148 | 0.0 | 0.0 | 0.00 | 0.00 | 0.00 | 65 | 1019.4 |
| 20260906112153 | 71 | 148 | 0.0 | 0.0 | 0.00 | 0.00 | 0.00 | 65 | 1019.0 |
| 20260906111525 | 70 | 148 | 0.0 | 0.0 | 0.00 | 0.00 | 0.00 | 66 | 1019.0 |
| 20260906110900 | 71 | 148 | 0.0 | 0.0 | 0.00 | 0.00 | 0.00 | 65 | 1019.0 |
| 20260906110300 | 71 | 148 | 0.0 | 0.0 | 0.00 | 0.00 | 0.00 | 64 | 1018.7 |
| 20260906105618 | 71 | 148 | 0.0 | 0.0 | 0.00 | 0.00 | 0.00 | 63 | 1018.3 |
| 20260906105007 | 72 | 148 | 0.0 | 0.0 | 0.00 | 0.00 | 0.00 | 62 | 1018.3 |
| 20260906104458 | 72 | 148 | 0.0 | 0.0 | 0.00 | 0.00 | 0.00 | 62 | 1018.7 |
| 20260906103818 | 72 | 147 | 0.0 | 0.0 | 0.00 | 0.00 | 0.00 | 62 | 1018.3 |
| 20260906103416 | 71 | 147 | 0.0 | 0.0 | 0.00 | 0.00 | 0.00 | 64 | 1018.3 |
| 20260906102745 | 71 | 147 | 0.0 | 0.0 | 0.00 | 0.00 | 0.00 | 64 | 1018.3 |
| 20260906101708 | 71 | 147 | 0.0 | 0.0 | 0.00 | 0.00 | 0.00 | 63 | 1018.3 |
| 20260906101118 | 72 | 147 | 0.0 | 0.0 | 0.00 | 0.00 | 0.00 | 62 | 1018.7 |
| 20260906100506 | 73 | 147 | 0.0 | 0.0 | 0.00 | 0.00 | 0.00 | 62 | 1018.7 |
| 20260906095917 | 73 | 147 | 0.0 | 0.0 | 0.00 | 0.00 | 0.00 | 62 | 1018.7 |
| 20260906095315 | 73 | 147 | 0.0 | 0.0 | 0.00 | 0.00 | 0.00 | 61 | 1018.3 |
| 20260906094810 | 73 | 147 | 0.0 | 0.0 | 0.00 | 0.00 | 0.00 | 60 | 1018.7 |
| 20260906094159 | 74 | 147 | 0.0 | 0.0 | 0.00 | 0.00 | 0.00 | 59 | 1018.3 |
| 20260906093500 | 74 | 147 | 0.0 | 0.0 | 0.00 | 0.00 | 0.00 | 59 | 1018.7 |
| 20260906092821 | 74 | 147 | 0.0 | 0.0 | 0.00 | 0.00 | 0.00 | 59 | 1018.3 |
| 20260906092156 | 74 | 146 | 0.0 | 0.0 | 0.00 | 0.00 | 0.00 | 58 | 1018.3 |
| 20260906091410 | 74 | 146 | 0.0 | 0.0 | 0.00 | 0.00 | 0.00 | 58 | 1018.7 |
| 20260906090710 | 74 | 146 | 0.0 | 0.0 | 0.00 | 0.00 | 0.00 | 58 | 1018.7 |
| 20260906090209 | 74 | 146 | 0.0 | 0.0 | 0.00 | 0.00 | 0.00 | 59 | 1018.7 |
| 20260906085641 | 74 | 146 | 0.0 | 0.0 | 0.00 | 0.00 | 0.00 | 58 | 1018.7 |
| 20260906085018 | 74 | 146 | 0.0 | 0.0 | 0.00 | 0.00 | 0.00 | 59 | 1018.7 |
| 20260906084401 | 74 | 146 | 0.0 | 0.0 | 0.00 | 0.00 | 0.00 | 58 | 1018.3 |
| 20260906083806 | 74 | 146 | 0.0 | 0.0 | 0.00 | 0.00 | 0.00 | 58 | 1018.7 |
| 20260906083217 | 75 | 146 | 0.0 | 0.0 | 0.00 | 0.00 | 0.00 | 57 | 1018.7 |
| 20260906082559 | 75 | 146 | 0.0 | 0.0 | 0.00 | 0.00 | 0.00 | 58 | 1018.3 |
| 20260906081941 | 75 | 146 | 0.0 | 0.0 | 0.00 | 0.00 | 0.00 | 57 | 1018.7 |
| 20260906081257 | 75 | 146 | 0.0 | 0.0 | 0.00 | 0.00 | 0.00 | 57 | 1018.7 |
| 20260906080617 | 75 | 146 | 0.0 | 0.0 | 0.00 | 0.00 | 0.00 | 57 | 1018.7 |
| 20260906075952 | 75 | 146 | 0.0 | 0.0 | 0.00 | 0.00 | 0.00 | 57 | 1018.7 |
| 20260906075624 | 75 | 146 | 0.0 | 0.0 | 0.00 | 0.00 | 0.00 | 57 | 1018.7 |
| 20260906074559 | 75 | 146 | 0.0 | 0.0 | 0.00 | 0.00 | 0.00 | 56 | 1018.3 |
| 20260906073917 | 76 | 145 | 0.0 | 0.0 | 0.00 | 0.00 | 0.00 | 56 | 1018.7 |
| 20260906073419 | 76 | 144 | 0.0 | 0.0 | 0.00 | 0.00 | 0.00 | 55 | 1018.7 |
| 20260906073044 | 77 | 141 | 0.0 | 0.0 | 0.00 | 0.00 | 0.00 | 54 | 1018.7 |
| 20260906072934 | 77 | 140 | 0.0 | 0.0 | 0.00 | 0.00 | 0.00 | 53 | 1018.3 |
| 20260906071607 | 77 | 140 | 0.0 | 0.0 | 0.00 | 0.00 | 0.00 | 52 | 1018.7 |
| 20260906071008 | 77 | 140 | 0.0 | 0.0 | 0.00 | 0.00 | 0.00 | 52 | 1018.7 |
| 20260906070459 | 77 | 136 | 0.0 | 0.0 | 0.00 | 0.00 | 0.00 | 52 | 1018.7 |
| 20260906065550 | 78 | 136 | 0.0 | 0.0 | 0.00 | 0.00 | 0.00 | 52 | 1018.7 |
| 20260906064933 | 78 | 137 | 0.0 | 3.5 | 0.00 | 0.00 | 0.00 | 52 | 1019.0 |
| 20260906064305 | 78 | 139 | 0.0 | 0.0 | 0.00 | 0.00 | 0.00 | 52 | 1019.4 |
| 20260906063635 | 78 | 137 | 0.0 | 0.0 | 0.00 | 0.00 | 0.00 | 52 | 1019.4 |
| 20260906063101 | 78 | 137 | 0.0 | 0.0 | 0.00 | 0.00 | 0.00 | 52 | 1019.4 |
| 20260906062443 | 79 | 137 | 0.0 | 1.7 | 0.00 | 0.00 | 0.00 | 51 | 1019.4 |
| 20260906061858 | 79 | 135 | 0.0 | 1.7 | 0.00 | 0.00 | 0.00 | 50 | 1019.4 |
| 20260906061351 | 79 | 128 | 0.0 | 0.0 | 0.00 | 0.00 | 0.00 | 50 | 1019.4 |
| 20260906061000 | 80 | 126 | 0.0 | 3.5 | 0.00 | 0.00 | 0.00 | 48 | 1019.4 |
| 20260906060130 | 80 | 122 | 0.0 | 0.0 | 0.00 | 0.00 | 0.00 | 48 | 1019.4 |
| 20260906055745 | 80 | 126 | 0.0 | 0.0 | 0.00 | 0.00 | 0.00 | 47 | 1019.0 |
| 20260906054919 | 80 | 127 | 0.0 | 0.0 | 0.00 | 0.00 | 0.00 | 47 | 1019.4 |
| 20260906054540 | 80 | 130 | 0.0 | 0.0 | 0.00 | 0.00 | 0.00 | 46 | 1019.4 |
| 20260906053808 | 81 | 130 | 0.0 | 0.0 | 0.00 | 0.00 | 0.00 | 46 | 1019.4 |
| 20260906053218 | 81 | 131 | 0.0 | 0.0 | 0.00 | 0.00 | 0.00 | 46 | 1019.4 |
| 20260906052600 | 81 | 132 | 0.0 | 0.9 | 0.00 | 0.00 | 0.00 | 46 | 1019.4 |
| 20260906051926 | 81 | 134 | 0.0 | 0.9 | 0.00 | 0.00 | 0.00 | 45 | 1019.4 |
| 20260906051256 | 81 | 136 | 0.0 | 0.0 | 0.00 | 0.00 | 0.00 | 44 | 1019.4 |
| 20260906050709 | 81 | 139 | 0.0 | 0.0 | 0.00 | 0.00 | 0.00 | 44 | 1019.4 |
| 20260906050135 | 81 | 136 | 0.0 | 0.0 | 0.00 | 0.00 | 0.00 | 44 | 1019.4 |
| 20260906045507 | 81 | 137 | 0.0 | 0.0 | 0.00 | 0.00 | 0.00 | 44 | 1019.7 |
| 20260906044916 | 81 | 130 | 0.0 | 0.0 | 0.00 | 0.00 | 0.00 | 44 | 1019.4 |
| 20260906044314 | 81 | 132 | 0.0 | 0.0 | 0.00 | 0.00 | 0.00 | 44 | 1019.7 |
| 20260906043909 | 81 | 137 | 0.0 | 0.0 | 0.00 | 0.00 | 0.00 | 43 | 1019.7 |
| 20260906043040 | 81 | 138 | 0.0 | 0.0 | 0.00 | 0.00 | 0.00 | 43 | 1019.4 |
| 20260906042516 | 81 | 144 | 0.0 | 0.0 | 0.00 | 0.00 | 0.00 | 43 | 1019.0 |
| 20260906042000 | 81 | 123 | 0.0 | 0.0 | 0.00 | 0.00 | 0.00 | 43 | 1019.4 |
| 20260906041400 | 81 | 124 | 1.7 | 3.5 | 0.00 | 0.00 | 0.00 | 43 | 1019.4 |
| 20260906040721 | 81 | 135 | 0.0 | 0.0 | 0.00 | 0.00 | 0.00 | 43 | 1019.0 |
| 20260906040341 | 82 | 139 | 0.0 | 0.0 | 0.00 | 0.00 | 0.00 | 43 | 1019.4 |
| 20260906035501 | 82 | 137 | 0.0 | 0.0 | 0.00 | 0.00 | 0.00 | 43 | 1019.4 |
| 20260906034842 | 82 | 135 | 0.0 | 0.0 | 0.00 | 0.00 | 0.00 | 42 | 1019.4 |
| 20260906034258 | 82 | 133 | 0.0 | 0.0 | 0.00 | 0.00 | 0.00 | 42 | 1018.7 |
| 20260906033933 | 83 | 140 | 0.0 | 0.0 | 0.00 | 0.00 | 0.00 | 41 | 1018.7 |
| 20260906033138 | 83 | 168 | 0.0 | 0.0 | 0.00 | 0.00 | 0.00 | 41 | 1018.7 |
| 20260906032639 | 83 | 137 | 0.0 | 0.0 | 0.00 | 0.00 | 0.00 | 41 | 1018.7 |
| 20260906032030 | 83 | 141 | 0.0 | 0.9 | 0.00 | 0.00 | 0.00 | 41 | 1018.7 |
| 20260906031418 | 83 | 151 | 0.0 | 7.0 | 0.00 | 0.00 | 0.00 | 41 | 1018.7 |
| 20260906031034 | 83 | 121 | 3.5 | 7.0 | 0.00 | 0.00 | 0.00 | 41 | 1018.7 |
| 20260906030200 | 83 | 145 | 0.0 | 0.0 | 0.00 | 0.00 | 0.00 | 42 | 1018.0 |
| 20260906025836 | 83 | 154 | 0.0 | 5.2 | 0.00 | 0.00 | 0.00 | 41 | 1017.7 |
| 20260906025544 | 83 | 150 | 0.0 | 1.7 | 0.00 | 0.00 | 0.00 | 42 | 1018.0 |
| 20260906024521 | 84 | 126 | 0.0 | 0.9 | 0.00 | 0.00 | 0.00 | 40 | 1017.7 |
| 20260906023755 | 84 | 149 | 0.0 | 0.0 | 0.00 | 0.00 | 0.00 | 40 | 1017.7 |
| 20260906022920 | 84 | 142 | 0.0 | 2.6 | 0.00 | 0.00 | 0.00 | 39 | 1017.7 |
| 20260906022312 | 84 | 149 | 0.0 | 0.0 | 0.00 | 0.00 | 0.00 | 38 | 1017.7 |
| 20260906021906 | 85 | 193 | 0.0 | 0.0 | 0.00 | 0.00 | 0.00 | 37 | 1017.3 |
| 20260906021024 | 85 | 138 | 0.0 | 0.0 | 0.00 | 0.00 | 0.00 | 36 | 1017.7 |
| 20260906020956 | 85 | 138 | 0.0 | 0.0 | 0.00 | 0.00 | 0.00 | 36 | 1017.3 |
| 20260906015658 | 85 | 130 | 0.0 | 0.0 | 0.00 | 0.00 | 0.00 | 35 | 1017.3 |
| 20260906015051 | 85 | 109 | 0.0 | 0.0 | 0.00 | 0.00 | 0.00 | 35 | 1017.3 |
| 20260906014631 | 85 | 133 | 0.0 | 0.0 | 0.00 | 0.00 | 0.00 | 35 | 1017.0 |
| 20260906013800 | 85 | 194 | 0.0 | 3.5 | 0.00 | 0.00 | 0.00 | 36 | 1017.0 |
| 20260906013208 | 86 | 202 | 0.9 | 3.5 | 0.00 | 0.00 | 0.00 | 35 | 1017.3 |
| 20260906012617 | 86 | 194 | 0.0 | 0.0 | 0.00 | 0.00 | 0.00 | 35 | 1017.3 |
| 20260906011958 | 86 | 144 | 0.0 | 0.0 | 0.00 | 0.00 | 0.00 | 35 | 1017.0 |
| 20260906011607 | 86 | 178 | 0.0 | 0.0 | 0.00 | 0.00 | 0.00 | 35 | 1017.3 |
| 20260906010652 | 86 | 177 | 0.0 | 0.0 | 0.00 | 0.00 | 0.00 | 35 | 1017.0 |
| 20260906010021 | 86 | 198 | 0.0 | 0.9 | 0.00 | 0.00 | 0.00 | 35 | 1017.0 |
| 20260906005411 | 87 | 206 | 0.0 | 0.0 | 0.00 | 0.00 | 0.00 | 35 | 1017.3 |
| 20260906004459 | 87 | 191 | 0.0 | 1.7 | 0.00 | 0.00 | 0.00 | 34 | 1017.0 |
| 20260906003919 | 87 | 193 | 0.0 | 6.1 | 0.00 | 0.00 | 0.00 | 35 | 1017.3 |
| 20260906003312 | 87 | 145 | 0.0 | 9.6 | 0.00 | 0.00 | 0.00 | 34 | 1017.0 |
| 20260906002710 | 87 | 122 | 7.8 | 9.6 | 0.00 | 0.00 | 0.00 | 35 | 1017.3 |
| 20260906002134 | 87 | 127 | 2.6 | 11.3 | 0.00 | 0.00 | 0.00 | 34 | 1017.0 |
| 20260906001359 | 88 | 115 | 8.7 | 13.0 | 0.00 | 0.00 | 0.00 | 33 | 1016.7 |
| 20260906000751 | 90 | 113 | 12.2 | 16.5 | 0.00 | 0.00 | 0.00 | 32 | 1017.0 |
| 20260905235837 | 89 | 116 | 7.0 | 12.2 | 0.00 | 0.00 | 0.00 | 31 | 1017.0 |
| 20260905235215 | 89 | 124 | 4.3 | 14.8 | 0.00 | 0.00 | 0.00 | 32 | 1017.0 |
| 20260905234713 | 88 | 166 | 11.3 | 14.8 | 0.00 | 0.00 | 0.00 | 34 | 1016.7 |
| 20260905234059 | 89 | 121 | 6.1 | 12.2 | 0.00 | 0.00 | 0.00 | 32 | 1016.7 |
| 20260905233503 | 89 | 167 | 9.6 | 13.0 | 0.00 | 0.00 | 0.00 | 33 | 1016.7 |
| 20260905232902 | 89 | 122 | 7.0 | 14.8 | 0.00 | 0.00 | 0.00 | 34 | 1017.0 |
| 20260905232258 | 92 | 153 | 7.8 | 16.5 | 0.00 | 0.00 | 0.00 | 32 | 1017.0 |
| 20260905231638 | 92 | 146 | 12.2 | 16.5 | 0.00 | 0.00 | 0.00 | 28 | 1016.7 |
| 20260905231017 | 92 | 108 | 11.3 | 14.8 | 0.00 | 0.00 | 0.00 | 27 | 1016.3 |
| 20260905230509 | 93 | 125 | 3.5 | 13.0 | 0.00 | 0.00 | 0.00 | 28 | 1016.3 |
| 20260905225923 | 92 | 124 | 10.4 | 14.8 | 0.00 | 0.00 | 0.00 | 28 | 1016.7 |
| 20260905225319 | 93 | 156 | 8.7 | 15.6 | 0.00 | 0.00 | 0.00 | 27 | 1016.3 |
| 20260905224642 | 94 | 130 | 11.3 | 15.6 | 0.00 | 0.00 | 0.00 | 28 | 1016.3 |
| 20260905224022 | 96 | 113 | 4.3 | 12.2 | 0.00 | 0.00 | 0.00 | 26 | 1016.7 |